Location: Boiro
(42.6475°N, 8.8834°W)
Time: 11:22:22
(UTC+02:00)

SL-8 DEB - Pass Details

Date: 09 July 2022
Orbit: 890 x 1013 km, 83.1° (Epoch: 16 August)

Event Time Altitude Azimuth Distance (km) Brightness Sun altitude
Rises 01:41:24 0° 342° (NNW) 3,571 ? -23.5°
Reaches altitude 10° 01:44:10 10° 332° (NNW) 2,607 ? -23.7°
Maximum altitude 01:49:11 30° 274° (W) 1,564 ? -23.9°
Enters shadow 01:51:38 22° 235° (SW) 1,855 ? -24.0°
